| time (UTC) | temp C | wind direction | speed KPH | gust KPH | rain 1hr cm | rain 24hr cm | rain mn cm | humidity % | barometer mb |
| 20260831195904 | 36 | 172 | 8.0 | 16.1 | 0.00 | 0.00 | 0.00 | 44 | 1017.0 |
| 20260831195404 | 36 | 158 | 3.2 | 11.3 | 0.00 | 0.00 | 0.00 | 47 | 1017.1 |
| 20260831194904 | 36 | 165 | 3.2 | 11.3 | 0.00 | 0.00 | 0.00 | 46 | 1017.1 |
| 20260831194404 | 36 | 140 | 0.0 | 14.5 | 0.00 | 0.00 | 0.00 | 46 | 1017.1 |
| 20260831193904 | 35 | 193 | 3.2 | 14.5 | 0.00 | 0.00 | 0.00 | 45 | 1017.1 |
| 20260831192404 | 35 | 197 | 6.4 | 14.5 | 0.00 | 0.00 | 0.00 | 46 | 1017.2 |
| 20260831191904 | 35 | 179 | 1.6 | 12.9 | 0.00 | 0.00 | 0.00 | 46 | 1017.1 |
| 20260831191404 | 35 | 222 | 8.0 | 12.9 | 0.00 | 0.00 | 0.00 | 45 | 1017.2 |
| 20260831190905 | 35 | 175 | 6.4 | 19.3 | 0.00 | 0.00 | 0.00 | 47 | 1017.2 |
| 20260831190404 | 35 | 196 | 3.2 | 14.5 | 0.00 | 0.00 | 0.00 | 47 | 1017.3 |
| 20260831185904 | 35 | 152 | 4.8 | 14.5 | 0.00 | 0.00 | 0.00 | 48 | 1017.4 |
| 20260831185404 | 35 | 180 | 3.2 | 12.9 | 0.00 | 0.00 | 0.00 | 48 | 1017.4 |
| 20260831184904 | 35 | 251 | 1.6 | 11.3 | 0.00 | 0.00 | 0.00 | 50 | 1017.4 |
| 20260831184405 | 35 | 219 | 3.2 | 16.1 | 0.00 | 0.00 | 0.00 | 50 | 1017.6 |
| 20260831183904 | 35 | 239 | 3.2 | 14.5 | 0.00 | 0.00 | 0.00 | 49 | 1017.5 |
| 20260831183404 | 35 | 188 | 1.6 | 12.9 | 0.00 | 0.00 | 0.00 | 51 | 1017.6 |
| 20260831182904 | 35 | 227 | 4.8 | 14.5 | 0.00 | 0.00 | 0.00 | 49 | 1017.7 |
| 20260831182404 | 35 | 186 | 0.0 | 16.1 | 0.00 | 0.00 | 0.00 | 49 | 1017.7 |
| 20260831181904 | 35 | 168 | 3.2 | 12.9 | 0.00 | 0.00 | 0.00 | 50 | 1017.8 |
| 20260831181404 | 34 | 229 | 3.2 | 16.1 | 0.00 | 0.00 | 0.00 | 50 | 1017.9 |
| 20260831180904 | 34 | 197 | 1.6 | 16.1 | 0.00 | 0.00 | 0.00 | 52 | 1017.9 |
| 20260831180404 | 34 | 193 | 6.4 | 12.9 | 0.00 | 0.00 | 0.00 | 51 | 1017.9 |
| 20260831175904 | 34 | 170 | 6.4 | 14.5 | 0.00 | 0.00 | 0.00 | 50 | 1017.9 |
| 20260831175405 | 34 | 245 | 4.8 | 14.5 | 0.00 | 0.00 | 0.00 | 50 | 1018.0 |
| 20260831173904 | 33 | 257 | 3.2 | 14.5 | 0.00 | 0.00 | 0.00 | 53 | 1018.2 |
| 20260831173404 | 34 | 210 | 6.4 | 16.1 | 0.00 | 0.00 | 0.00 | 52 | 1018.2 |
| 20260831171904 | 33 | 219 | 3.2 | 16.1 | 0.00 | 0.00 | 0.00 | 53 | 1018.2 |
| 20260831171404 | 33 | 238 | 3.2 | 11.3 | 0.00 | 0.00 | 0.00 | 53 | 1018.2 |
| 20260831170904 | 33 | 235 | 3.2 | 12.9 | 0.00 | 0.00 | 0.00 | 54 | 1018.3 |
| 20260831170404 | 33 | 215 | 3.2 | 11.3 | 0.00 | 0.00 | 0.00 | 53 | 1018.4 |
| 20260831165904 | 33 | 192 | 4.8 | 14.5 | 0.00 | 0.00 | 0.00 | 54 | 1018.5 |
| 20260831165404 | 33 | 189 | 3.2 | 12.9 | 0.00 | 0.00 | 0.00 | 53 | 1018.5 |
| 20260831164904 | 33 | 185 | 4.8 | 14.5 | 0.00 | 0.00 | 0.00 | 54 | 1018.5 |
| 20260831164404 | 33 | 192 | 3.2 | 16.1 | 0.00 | 0.00 | 0.00 | 53 | 1018.6 |
| 20260831163904 | 33 | 243 | 4.8 | 12.9 | 0.00 | 0.00 | 0.00 | 55 | 1018.6 |
| 20260831163404 | 33 | 207 | 4.8 | 16.1 | 0.00 | 0.00 | 0.00 | 54 | 1018.6 |
| 20260831162404 | 33 | 176 | 4.8 | 16.1 | 0.00 | 0.00 | 0.00 | 56 | 1018.6 |
| 20260831161904 | 32 | 190 | 4.8 | 16.1 | 0.00 | 0.00 | 0.00 | 55 | 1018.7 |
| 20260831161405 | 32 | 212 | 3.2 | 12.9 | 0.00 | 0.00 | 0.00 | 55 | 1018.8 |
| 20260831160404 | 32 | 207 | 4.8 | 19.3 | 0.00 | 0.00 | 0.00 | 57 | 1018.8 |
| 20260831155904 | 32 | 218 | 8.0 | 14.5 | 0.00 | 0.00 | 0.00 | 56 | 1018.8 |
| 20260831155404 | 32 | 170 | 1.6 | 16.1 | 0.00 | 0.00 | 0.00 | 57 | 1018.8 |
| 20260831154904 | 32 | 201 | 1.6 | 11.3 | 0.00 | 0.00 | 0.00 | 58 | 1018.8 |
| 20260831153904 | 32 | 246 | 3.2 | 14.5 | 0.00 | 0.00 | 0.00 | 59 | 1018.8 |
| 20260831153404 | 31 | 179 | 0.0 | 11.3 | 0.00 | 0.00 | 0.00 | 60 | 1018.7 |
| 20260831152904 | 31 | 240 | 1.6 | 9.7 | 0.00 | 0.00 | 0.00 | 60 | 1018.7 |
| 20260831151904 | 31 | 207 | 1.6 | 16.1 | 0.00 | 0.00 | 0.00 | 61 | 1018.9 |
| 20260831151404 | 31 | 209 | 6.4 | 12.9 | 0.00 | 0.00 | 0.00 | 62 | 1018.9 |
| 20260831150904 | 31 | 233 | 0.0 | 9.7 | 0.00 | 0.00 | 0.00 | 62 | 1018.8 |
| 20260831150404 | 30 | 169 | 3.2 | 12.9 | 0.00 | 0.00 | 0.00 | 63 | 1018.9 |
| 20260831145904 | 30 | 170 | 1.6 | 12.9 | 0.00 | 0.00 | 0.00 | 65 | 1018.9 |
| 20260831144404 | 29 | 240 | 6.4 | 14.5 | 0.00 | 0.00 | 0.00 | 67 | 1018.7 |
| 20260831143403 | 28 | 190 | 3.2 | 16.1 | 0.00 | 0.00 | 0.00 | 67 | 1018.7 |
| 20260831142904 | 28 | 218 | 1.6 | 8.0 | 0.00 | 0.00 | 0.00 | 68 | 1018.6 |
| 20260831142404 | 28 | 219 | 4.8 | 19.3 | 0.00 | 0.00 | 0.00 | 69 | 1018.6 |
| 20260831141904 | 28 | 201 | 1.6 | 12.9 | 0.00 | 0.00 | 0.00 | 69 | 1018.6 |
| 20260831140904 | 27 | 214 | 3.2 | 9.7 | 0.00 | 0.00 | 0.00 | 71 | 1018.6 |
| 20260831140404 | 27 | 190 | 3.2 | 8.0 | 0.00 | 0.00 | 0.00 | 72 | 1018.5 |
| 20260831135903 | 27 | 225 | 3.2 | 11.3 | 0.00 | 0.00 | 0.00 | 74 | 1018.5 |
| 20260831135403 | 26 | 222 | 3.2 | 11.3 | 0.00 | 0.00 | 0.00 | 75 | 1018.5 |
| 20260831134904 | 26 | 236 | 1.6 | 9.7 | 0.00 | 0.00 | 0.00 | 77 | 1018.5 |
| 20260831134404 | 26 | 238 | 3.2 | 11.3 | 0.00 | 0.00 | 0.00 | 78 | 1018.4 |
| 20260831133904 | 25 | 224 | 0.0 | 8.0 | 0.00 | 0.00 | 0.00 | 79 | 1018.4 |
| 20260831133404 | 25 | 170 | 0.0 | 0.0 | 0.00 | 0.00 | 0.00 | 80 | 1018.4 |
| 20260831132904 | 25 | 185 | 0.0 | 0.0 | 0.00 | 0.00 | 0.00 | 81 | 1018.4 |
| 20260831132404 | 25 | 153 | 0.0 | 0.0 | 0.00 | 0.00 | 0.00 | 82 | 1018.4 |
| 20260831131903 | 24 | 146 | 0.0 | 0.0 | 0.00 | 0.00 | 0.00 | 82 | 1018.4 |
| 20260831131403 | 24 | 252 | 0.0 | 0.0 | 0.00 | 0.00 | 0.00 | 82 | 1018.4 |
| 20260831130904 | 23 | 209 | 0.0 | 0.0 | 0.00 | 0.00 | 0.00 | 82 | 1018.3 |
| 20260831130404 | 23 | 209 | 0.0 | 0.0 | 0.00 | 0.00 | 0.00 | 82 | 1018.3 |
| 20260831125904 | 23 | 196 | 0.0 | 0.0 | 0.00 | 0.00 | 0.00 | 82 | 1018.3 |
| 20260831125404 | 23 | 202 | 0.0 | 0.0 | 0.00 | 0.00 | 0.00 | 82 | 1018.2 |
| 20260831124904 | 23 | 148 | 0.0 | 0.0 | 0.00 | 0.00 | 0.00 | 82 | 1018.2 |
| 20260831124403 | 23 | 149 | 0.0 | 0.0 | 0.00 | 0.00 | 0.00 | 82 | 1018.2 |
| 20260831123904 | 23 | 152 | 0.0 | 0.0 | 0.00 | 0.00 | 0.00 | 82 | 1018.1 |
| 20260831123404 | 22 | 146 | 0.0 | 0.0 | 0.00 | 0.00 | 0.00 | 82 | 1018.1 |
| 20260831122904 | 22 | 168 | 0.0 | 0.0 | 0.00 | 0.00 | 0.00 | 82 | 1018.0 |
| 20260831122404 | 22 | 160 | 0.0 | 0.0 | 0.00 | 0.00 | 0.00 | 82 | 1018.0 |
| 20260831121903 | 22 | 162 | 0.0 | 0.0 | 0.00 | 0.00 | 0.00 | 82 | 1017.9 |
| 20260831121404 | 22 | 162 | 0.0 | 0.0 | 0.00 | 0.00 | 0.00 | 82 | 1017.9 |
| 20260831115903 | 22 | 218 | 0.0 | 0.0 | 0.00 | 0.00 | 0.00 | 82 | 1017.7 |
| 20260831115404 | 22 | 227 | 0.0 | 0.0 | 0.00 | 0.00 | 0.00 | 82 | 1017.7 |
| 20260831114904 | 22 | 227 | 0.0 | 0.0 | 0.00 | 0.00 | 0.00 | 82 | 1017.7 |
| 20260831114404 | 21 | 228 | 0.0 | 0.0 | 0.00 | 0.00 | 0.00 | 82 | 1017.6 |
| 20260831113904 | 21 | 233 | 0.0 | 0.0 | 0.00 | 0.00 | 0.00 | 82 | 1017.6 |
| 20260831113403 | 21 | 233 | 0.0 | 0.0 | 0.00 | 0.00 | 0.00 | 82 | 1017.5 |
| 20260831112903 | 21 | 233 | 0.0 | 0.0 | 0.00 | 0.00 | 0.00 | 82 | 1017.4 |
| 20260831112404 | 21 | 233 | 0.0 | 0.0 | 0.00 | 0.00 | 0.00 | 82 | 1017.4 |
| 20260831111904 | 21 | 233 | 0.0 | 0.0 | 0.00 | 0.00 | 0.00 | 82 | 1017.5 |
| 20260831111404 | 21 | 233 | 0.0 | 0.0 | 0.00 | 0.00 | 0.00 | 82 | 1017.4 |
| 20260831110903 | 21 | 233 | 0.0 | 0.0 | 0.00 | 0.00 | 0.00 | 82 | 1017.4 |
| 20260831110403 | 21 | 233 | 0.0 | 0.0 | 0.00 | 0.00 | 0.00 | 82 | 1017.4 |
| 20260831105903 | 21 | 233 | 0.0 | 0.0 | 0.00 | 0.00 | 0.00 | 82 | 1017.4 |
| 20260831105404 | 21 | 233 | 0.0 | 0.0 | 0.00 | 0.00 | 0.00 | 82 | 1017.4 |
| 20260831104904 | 21 | 233 | 0.0 | 0.0 | 0.00 | 0.00 | 0.00 | 82 | 1017.4 |
| 20260831104403 | 21 | 233 | 0.0 | 0.0 | 0.00 | 0.00 | 0.00 | 82 | 1017.4 |
| 20260831103904 | 21 | 233 | 0.0 | 0.0 | 0.00 | 0.00 | 0.00 | 82 | 1017.4 |
| 20260831102903 | 22 | 233 | 0.0 | 0.0 | 0.00 | 0.00 | 0.00 | 82 | 1017.2 |
| 20260831102403 | 22 | 233 | 0.0 | 0.0 | 0.00 | 0.00 | 0.00 | 82 | 1017.1 |
| 20260831101904 | 22 | 233 | 0.0 | 0.0 | 0.00 | 0.00 | 0.00 | 82 | 1017.1 |
| 20260831101403 | 22 | 233 | 0.0 | 0.0 | 0.00 | 0.00 | 0.00 | 82 | 1017.1 |
| 20260831100904 | 22 | 233 | 0.0 | 0.0 | 0.00 | 0.00 | 0.00 | 82 | 1016.9 |
| 20260831100404 | 21 | 233 | 0.0 | 0.0 | 0.00 | 0.00 | 0.00 | 82 | 1016.9 |
| 20260831095403 | 21 | 234 | 0.0 | 0.0 | 0.00 | 0.00 | 0.00 | 82 | 1016.7 |
| 20260831094404 | 21 | 234 | 0.0 | 0.0 | 0.00 | 0.00 | 0.00 | 82 | 1016.7 |
| 20260831093904 | 21 | 234 | 0.0 | 0.0 | 0.00 | 0.00 | 0.00 | 82 | 1016.7 |
| 20260831093403 | 21 | 234 | 0.0 | 0.0 | 0.00 | 0.00 | 0.00 | 82 | 1016.7 |
| 20260831092903 | 21 | 235 | 0.0 | 0.0 | 0.00 | 0.00 | 0.00 | 82 | 1016.7 |
| 20260831092404 | 21 | 235 | 0.0 | 0.0 | 0.00 | 0.00 | 0.00 | 82 | 1016.8 |
| 20260831091904 | 21 | 235 | 0.0 | 0.0 | 0.00 | 0.00 | 0.00 | 82 | 1016.8 |
| 20260831091403 | 21 | 235 | 0.0 | 0.0 | 0.00 | 0.00 | 0.00 | 82 | 1016.8 |
| 20260831090905 | 21 | 235 | 0.0 | 0.0 | 0.00 | 0.00 | 0.00 | 82 | 1016.9 |
| 20260831090405 | 21 | 235 | 0.0 | 0.0 | 0.00 | 0.00 | 0.00 | 82 | 1016.9 |
| 20260831085905 | 21 | 235 | 0.0 | 0.0 | 0.00 | 0.00 | 0.00 | 82 | 1016.9 |
| 20260831084405 | 21 | 235 | 0.0 | 0.0 | 0.00 | 0.00 | 0.00 | 82 | 1016.9 |
| 20260831083905 | 21 | 235 | 0.0 | 0.0 | 0.00 | 0.00 | 0.00 | 82 | 1016.8 |
| 20260831083405 | 21 | 235 | 0.0 | 0.0 | 0.00 | 0.00 | 0.00 | 82 | 1016.8 |
| 20260831082906 | 21 | 234 | 0.0 | 0.0 | 0.00 | 0.00 | 0.00 | 82 | 1016.7 |
| 20260831082405 | 21 | 235 | 0.0 | 0.0 | 0.00 | 0.00 | 0.00 | 82 | 1016.7 |
| 20260831081905 | 21 | 235 | 0.0 | 0.0 | 0.00 | 0.00 | 0.00 | 82 | 1016.7 |
| 20260831080906 | 21 | 235 | 0.0 | 0.0 | 0.00 | 0.00 | 0.00 | 82 | 1016.6 |
| 20260831080405 | 21 | 235 | 0.0 | 0.0 | 0.00 | 0.00 | 0.00 | 82 | 1016.6 |
| 20260831075905 | 21 | 235 | 0.0 | 0.0 | 0.00 | 0.00 | 0.00 | 82 | 1016.6 |
| 20260831074905 | 21 | 235 | 0.0 | 0.0 | 0.00 | 0.00 | 0.00 | 82 | 1016.4 |
| 20260831074405 | 21 | 235 | 0.0 | 0.0 | 0.00 | 0.00 | 0.00 | 82 | 1016.4 |
| 20260831073905 | 21 | 235 | 0.0 | 0.0 | 0.00 | 0.00 | 0.00 | 81 | 1016.4 |
| 20260831073405 | 21 | 235 | 0.0 | 0.0 | 0.00 | 0.00 | 0.00 | 81 | 1016.5 |
| 20260831072905 | 21 | 235 | 0.0 | 0.0 | 0.00 | 0.00 | 0.00 | 81 | 1016.5 |
| 20260831072406 | 21 | 235 | 0.0 | 0.0 | 0.00 | 0.00 | 0.00 | 82 | 1016.5 |
| 20260831071905 | 21 | 235 | 0.0 | 0.0 | 0.00 | 0.00 | 0.00 | 82 | 1016.5 |
| 20260831071405 | 21 | 235 | 0.0 | 0.0 | 0.00 | 0.00 | 0.00 | 81 | 1016.5 |
| 20260831070905 | 21 | 235 | 0.0 | 0.0 | 0.00 | 0.00 | 0.00 | 81 | 1016.6 |
| 20260831070405 | 21 | 235 | 0.0 | 0.0 | 0.00 | 0.00 | 0.00 | 81 | 1016.6 |
| 20260831065905 | 21 | 235 | 0.0 | 0.0 | 0.00 | 0.00 | 0.00 | 81 | 1016.6 |
| 20260831065405 | 21 | 235 | 0.0 | 0.0 | 0.00 | 0.00 | 0.00 | 81 | 1016.7 |
| 20260831064905 | 21 | 235 | 0.0 | 0.0 | 0.00 | 0.00 | 0.00 | 81 | 1016.7 |
| 20260831064405 | 21 | 235 | 0.0 | 0.0 | 0.00 | 0.00 | 0.00 | 81 | 1016.7 |
| 20260831063905 | 21 | 235 | 0.0 | 0.0 | 0.00 | 0.00 | 0.00 | 81 | 1016.7 |
| 20260831063405 | 21 | 235 | 0.0 | 0.0 | 0.00 | 0.00 | 0.00 | 80 | 1016.7 |
| 20260831062905 | 21 | 235 | 0.0 | 0.0 | 0.00 | 0.00 | 0.00 | 81 | 1016.8 |
| 20260831062405 | 21 | 235 | 0.0 | 0.0 | 0.00 | 0.00 | 0.00 | 81 | 1016.9 |
| 20260831061405 | 21 | 235 | 0.0 | 0.0 | 0.00 | 0.00 | 0.00 | 80 | 1016.9 |
| 20260831060905 | 21 | 235 | 0.0 | 0.0 | 0.00 | 0.00 | 0.00 | 80 | 1016.9 |
| 20260831055905 | 21 | 235 | 0.0 | 0.0 | 0.00 | 0.00 | 0.00 | 80 | 1017.0 |
| 20260831054905 | 22 | 235 | 0.0 | 0.0 | 0.00 | 0.00 | 0.00 | 80 | 1016.9 |
| 20260831054405 | 22 | 234 | 0.0 | 0.0 | 0.00 | 0.00 | 0.00 | 80 | 1016.8 |
| 20260831052405 | 22 | 235 | 0.0 | 0.0 | 0.00 | 0.00 | 0.00 | 79 | 1016.8 |
| 20260831051905 | 22 | 235 | 0.0 | 0.0 | 0.00 | 0.00 | 0.00 | 79 | 1016.9 |
| 20260831051405 | 22 | 235 | 0.0 | 0.0 | 0.00 | 0.00 | 0.00 | 79 | 1017.0 |
| 20260831050404 | 22 | 234 | 0.0 | 0.0 | 0.00 | 0.00 | 0.00 | 79 | 1017.0 |
| 20260831045905 | 22 | 235 | 0.0 | 0.0 | 0.00 | 0.00 | 0.00 | 79 | 1017.0 |
| 20260831045405 | 22 | 235 | 0.0 | 0.0 | 0.00 | 0.00 | 0.00 | 79 | 1017.0 |
| 20260831044905 | 22 | 235 | 0.0 | 0.0 | 0.00 | 0.00 | 0.00 | 79 | 1016.9 |
| 20260831044405 | 22 | 235 | 0.0 | 0.0 | 0.00 | 0.00 | 0.00 | 79 | 1016.9 |
| 20260831043904 | 22 | 235 | 0.0 | 0.0 | 0.00 | 0.00 | 0.00 | 79 | 1016.9 |
| 20260831043405 | 22 | 235 | 0.0 | 0.0 | 0.00 | 0.00 | 0.00 | 78 | 1016.9 |
| 20260831042905 | 22 | 235 | 0.0 | 0.0 | 0.00 | 0.00 | 0.00 | 78 | 1016.9 |
| 20260831042405 | 22 | 234 | 0.0 | 0.0 | 0.00 | 0.00 | 0.00 | 78 | 1016.9 |
| 20260831041405 | 22 | 235 | 0.0 | 0.0 | 0.00 | 0.00 | 0.00 | 78 | 1016.9 |
| 20260831040905 | 22 | 235 | 0.0 | 0.0 | 0.00 | 0.00 | 0.00 | 78 | 1016.9 |
| 20260831040405 | 22 | 235 | 0.0 | 0.0 | 0.00 | 0.00 | 0.00 | 77 | 1017.0 |
| 20260831035905 | 22 | 235 | 0.0 | 0.0 | 0.00 | 0.00 | 0.00 | 77 | 1016.9 |
| 20260831035405 | 22 | 235 | 0.0 | 0.0 | 0.00 | 0.00 | 0.00 | 77 | 1016.9 |
| 20260831034405 | 23 | 235 | 0.0 | 0.0 | 0.00 | 0.00 | 0.00 | 76 | 1016.9 |
| 20260831033405 | 23 | 235 | 0.0 | 0.0 | 0.00 | 0.00 | 0.00 | 76 | 1016.8 |
| 20260831032905 | 23 | 235 | 0.0 | 0.0 | 0.00 | 0.00 | 0.00 | 76 | 1016.7 |
| 20260831032405 | 23 | 234 | 0.0 | 0.0 | 0.00 | 0.00 | 0.00 | 75 | 1016.8 |
| 20260831031905 | 23 | 235 | 0.0 | 0.0 | 0.00 | 0.00 | 0.00 | 75 | 1016.8 |
| 20260831031404 | 23 | 235 | 0.0 | 0.0 | 0.00 | 0.00 | 0.00 | 75 | 1016.8 |
| 20260831030905 | 23 | 235 | 0.0 | 0.0 | 0.00 | 0.00 | 0.00 | 74 | 1016.8 |
| 20260831030405 | 23 | 235 | 0.0 | 0.0 | 0.00 | 0.00 | 0.00 | 74 | 1016.8 |
| 20260831025904 | 23 | 235 | 0.0 | 0.0 | 0.00 | 0.00 | 0.00 | 74 | 1016.9 |
| 20260831025405 | 23 | 235 | 0.0 | 0.0 | 0.00 | 0.00 | 0.00 | 74 | 1017.0 |
| 20260831024405 | 24 | 235 | 0.0 | 0.0 | 0.00 | 0.00 | 0.00 | 73 | 1016.9 |
| 20260831023905 | 24 | 235 | 0.0 | 0.0 | 0.00 | 0.00 | 0.00 | 73 | 1016.8 |
| 20260831023405 | 25 | 235 | 0.0 | 0.0 | 0.00 | 0.00 | 0.00 | 72 | 1016.6 |
| 20260831022904 | 25 | 235 | 0.0 | 0.0 | 0.00 | 0.00 | 0.00 | 72 | 1016.6 |
| 20260831022405 | 25 | 235 | 0.0 | 0.0 | 0.00 | 0.00 | 0.00 | 71 | 1016.6 |
| 20260831021905 | 25 | 235 | 0.0 | 0.0 | 0.00 | 0.00 | 0.00 | 70 | 1016.5 |
| 20260831021405 | 25 | 234 | 0.0 | 0.0 | 0.00 | 0.00 | 0.00 | 69 | 1016.5 |
| 20260831020905 | 25 | 235 | 0.0 | 0.0 | 0.00 | 0.00 | 0.00 | 69 | 1016.5 |
| 20260831020404 | 26 | 235 | 0.0 | 0.0 | 0.00 | 0.00 | 0.00 | 67 | 1016.5 |
| 20260831015405 | 26 | 235 | 0.0 | 0.0 | 0.00 | 0.00 | 0.00 | 65 | 1016.3 |
| 20260831014405 | 26 | 235 | 0.0 | 0.0 | 0.00 | 0.00 | 0.00 | 64 | 1016.3 |
| 20260831013905 | 26 | 235 | 0.0 | 0.0 | 0.00 | 0.00 | 0.00 | 64 | 1016.2 |
| 20260831013405 | 26 | 235 | 0.0 | 0.0 | 0.00 | 0.00 | 0.00 | 63 | 1016.1 |
| 20260831012905 | 27 | 235 | 0.0 | 0.0 | 0.00 | 0.00 | 0.00 | 63 | 1016.1 |
| 20260831012405 | 27 | 235 | 0.0 | 0.0 | 0.00 | 0.00 | 0.00 | 62 | 1016.0 |
| 20260831011904 | 27 | 235 | 0.0 | 0.0 | 0.00 | 0.00 | 0.00 | 61 | 1016.0 |
| 20260831011405 | 27 | 235 | 0.0 | 0.0 | 0.00 | 0.00 | 0.00 | 60 | 1016.0 |
| 20260831010905 | 27 | 235 | 0.0 | 0.0 | 0.00 | 0.00 | 0.00 | 60 | 1016.1 |
| 20260831010405 | 28 | 235 | 0.0 | 0.0 | 0.00 | 0.00 | 0.00 | 59 | 1016.1 |
| 20260831005905 | 28 | 235 | 0.0 | 0.0 | 0.00 | 0.00 | 0.00 | 58 | 1016.0 |
| 20260831005405 | 28 | 235 | 0.0 | 0.0 | 0.00 | 0.00 | 0.00 | 57 | 1016.0 |
| 20260831004905 | 28 | 234 | 0.0 | 0.0 | 0.00 | 0.00 | 0.00 | 57 | 1016.0 |
| 20260831004404 | 29 | 235 | 0.0 | 0.0 | 0.00 | 0.00 | 0.00 | 56 | 1015.9 |
| 20260831003905 | 29 | 235 | 0.0 | 0.0 | 0.00 | 0.00 | 0.00 | 55 | 1015.9 |
| 20260831003405 | 30 | 235 | 0.0 | 0.0 | 0.00 | 0.00 | 0.00 | 54 | 1015.8 |
| 20260831002904 | 30 | 235 | 0.0 | 0.0 | 0.00 | 0.00 | 0.00 | 53 | 1015.8 |
| 20260831002405 | 30 | 236 | 0.0 | 0.0 | 0.00 | 0.00 | 0.00 | 52 | 1015.8 |
| 20260831001404 | 31 | 237 | 0.0 | 0.0 | 0.00 | 0.00 | 0.00 | 50 | 1015.8 |
| 20260831000404 | 31 | 237 | 0.0 | 0.0 | 0.00 | 0.00 | 0.00 | 49 | 1015.9 |
| 20260830235905 | 31 | 237 | 0.0 | 0.0 | 0.00 | 0.00 | 0.00 | 49 | 1015.9 |
| 20260830235405 | 32 | 239 | 0.0 | 0.0 | 0.00 | 0.00 | 0.00 | 48 | 1016.0 |
| 20260830234404 | 32 | 239 | 0.0 | 0.0 | 0.00 | 0.00 | 0.00 | 46 | 1016.2 |
| 20260830233405 | 32 | 200 | 1.6 | 4.8 | 0.00 | 0.00 | 0.00 | 45 | 1016.1 |
| 20260830232904 | 32 | 209 | 1.6 | 9.7 | 0.00 | 0.00 | 0.00 | 45 | 1016.1 |
| 20260830232404 | 32 | 223 | 0.0 | 3.2 | 0.00 | 0.00 | 0.00 | 45 | 1016.0 |
| 20260830231905 | 32 | 205 | 0.0 | 9.7 | 0.00 | 0.00 | 0.00 | 45 | 1016.0 |
| 20260830231405 | 32 | 217 | 1.6 | 4.8 | 0.00 | 0.00 | 0.00 | 45 | 1016.0 |
| 20260830230904 | 32 | 192 | 1.6 | 9.7 | 0.00 | 0.00 | 0.00 | 46 | 1016.1 |
| 20260830230404 | 32 | 169 | 1.6 | 11.3 | 0.00 | 0.00 | 0.00 | 45 | 1016.1 |
| 20260830225904 | 32 | 216 | 1.6 | 16.1 | 0.00 | 0.00 | 0.00 | 45 | 1016.1 |
| 20260830225405 | 32 | 200 | 0.0 | 9.7 | 0.00 | 0.00 | 0.00 | 44 | 1016.0 |
| 20260830224904 | 32 | 212 | 0.0 | 8.0 | 0.00 | 0.00 | 0.00 | 43 | 1016.0 |
| 20260830224405 | 33 | 127 | 0.0 | 9.7 | 0.00 | 0.00 | 0.00 | 43 | 1015.9 |
| 20260830223905 | 33 | 180 | 3.2 | 11.3 | 0.00 | 0.00 | 0.00 | 42 | 1016.0 |
| 20260830223404 | 33 | 197 | 3.2 | 12.9 | 0.00 | 0.00 | 0.00 | 40 | 1016.0 |
| 20260830222904 | 34 | 250 | 1.6 | 8.0 | 0.00 | 0.00 | 0.00 | 39 | 1016.0 |
| 20260830222404 | 35 | 204 | 0.0 | 3.2 | 0.00 | 0.00 | 0.00 | 39 | 1016.1 |
| 20260830221905 | 35 | 182 | 1.6 | 8.0 | 0.00 | 0.00 | 0.00 | 38 | 1016.1 |
| 20260830221405 | 35 | 190 | 1.6 | 8.0 | 0.00 | 0.00 | 0.00 | 40 | 1016.1 |
| 20260830220905 | 35 | 190 | 0.0 | 3.2 | 0.00 | 0.00 | 0.00 | 39 | 1016.1 |
| 20260830215904 | 35 | 184 | 1.6 | 16.1 | 0.00 | 0.00 | 0.00 | 38 | 1016.1 |
| 20260830215404 | 35 | 190 | 1.6 | 9.7 | 0.00 | 0.00 | 0.00 | 39 | 1016.1 |
| 20260830214904 | 35 | 162 | 1.6 | 9.7 | 0.00 | 0.00 | 0.00 | 39 | 1016.1 |
| 20260830214405 | 35 | 212 | 3.2 | 9.7 | 0.00 | 0.00 | 0.00 | 37 | 1016.2 |
| 20260830213904 | 35 | 209 | 1.6 | 9.7 | 0.00 | 0.00 | 0.00 | 38 | 1016.2 |
| 20260830213404 | 35 | 225 | 1.6 | 11.3 | 0.00 | 0.00 | 0.00 | 38 | 1016.2 |
| 20260830212904 | 35 | 188 | 3.2 | 12.9 | 0.00 | 0.00 | 0.00 | 38 | 1016.3 |
| 20260830211905 | 35 | 225 | 1.6 | 11.3 | 0.00 | 0.00 | 0.00 | 38 | 1016.3 |
| 20260830211404 | 35 | 203 | 0.0 | 8.0 | 0.00 | 0.00 | 0.00 | 40 | 1016.3 |
| 20260830210904 | 35 | 219 | 1.6 | 4.8 | 0.00 | 0.00 | 0.00 | 39 | 1016.4 |
| 20260830210404 | 35 | 168 | 1.6 | 11.3 | 0.00 | 0.00 | 0.00 | 40 | 1016.5 |
| 20260830205905 | 35 | 182 | 1.6 | 8.0 | 0.00 | 0.00 | 0.00 | 39 | 1016.5 |
| 20260830205405 | 35 | 211 | 0.0 | 12.9 | 0.00 | 0.00 | 0.00 | 40 | 1016.4 |
| 20260830204905 | 35 | 190 | 1.6 | 12.9 | 0.00 | 0.00 | 0.00 | 40 | 1016.5 |
| 20260830203904 | 35 | 167 | 1.6 | 8.0 | 0.00 | 0.00 | 0.00 | 40 | 1016.5 |
| 20260830203404 | 35 | 171 | 3.2 | 19.3 | 0.00 | 0.00 | 0.00 | 40 | 1016.5 |
| 20260830202905 | 35 | 239 | 1.6 | 9.7 | 0.00 | 0.00 | 0.00 | 40 | 1016.7 |
| 20260830201905 | 35 | 220 | 4.8 | 12.9 | 0.00 | 0.00 | 0.00 | 41 | 1016.8 |
| 20260830201405 | 35 | 200 | 1.6 | 8.0 | 0.00 | 0.00 | 0.00 | 42 | 1016.8 |
| 20260830200404 | 35 | 180 | 0.0 | 4.8 | 0.00 | 0.00 | 0.00 | 43 | 1017.0 |